| time (UTC) | temp F | wind direction | speed MPH | gust MPH | rain 1hr in | rain 24hr in | rain mn in | humidity % | barometer mb |
| 20260506131536 | 43 | 0 | 0.0 | 0.0 | 0.00 | 0.06 | 0.00 | 92 | 1017.0 |
| 20260506130038 | 43 | 0 | 0.0 | 0.0 | 0.00 | 0.06 | 0.00 | 92 | 1016.8 |
| 20260506124538 | 44 | 0 | 0.0 | 0.0 | 0.00 | 0.13 | 0.00 | 92 | 1016.6 |
| 20260506123036 | 44 | 0 | 0.0 | 0.0 | 0.00 | 0.13 | 0.00 | 93 | 1016.1 |
| 20260506121538 | 44 | 0 | 0.0 | 0.0 | 0.00 | 0.13 | 0.00 | 93 | 1016.0 |
| 20260506120038 | 44 | 0 | 0.0 | 1.0 | 0.00 | 0.13 | 0.00 | 92 | 1015.9 |
| 20260506114535 | 44 | 0 | 0.0 | 0.0 | 0.00 | 0.13 | 0.00 | 91 | 1015.8 |
| 20260506113038 | 44 | 0 | 0.0 | 0.0 | 0.00 | 0.13 | 0.00 | 90 | 1015.5 |
| 20260506111537 | 45 | 0 | 0.0 | 0.0 | 0.00 | 0.13 | 0.00 | 90 | 1015.4 |
| 20260506110039 | 44 | 0 | 0.0 | 0.0 | 0.00 | 0.13 | 0.00 | 90 | 1015.1 |
| 20260506104537 | 45 | 0 | 0.0 | 0.0 | 0.00 | 0.13 | 0.00 | 90 | 1014.9 |
| 20260506103038 | 45 | 0 | 0.0 | 0.0 | 0.00 | 0.13 | 0.00 | 89 | 1014.9 |
| 20260506101537 | 45 | 0 | 0.0 | 0.0 | 0.00 | 0.13 | 0.00 | 90 | 1014.6 |
| 20260506100038 | 46 | 0 | 0.0 | 0.0 | 0.00 | 0.13 | 0.00 | 89 | 1014.6 |
| 20260506094538 | 46 | 0 | 0.0 | 0.0 | 0.00 | 0.18 | 0.00 | 90 | 1014.6 |
| 20260506093041 | 46 | 0 | 0.0 | 0.0 | 0.00 | 0.18 | 0.00 | 88 | 1014.4 |
| 20260506091537 | 46 | 0 | 0.0 | 0.0 | 0.00 | 0.18 | 0.00 | 89 | 1014.2 |
| 20260506090039 | 46 | 0 | 0.0 | 0.0 | 0.00 | 0.18 | 0.00 | 87 | 1014.2 |
| 20260506084538 | 47 | 0 | 0.0 | 0.0 | 0.00 | 0.23 | 0.00 | 87 | 1014.2 |
| 20260506083042 | 47 | 0 | 0.0 | 0.0 | 0.00 | 0.23 | 0.00 | 85 | 1014.1 |
| 20260506081537 | 49 | 0 | 0.0 | 2.0 | 0.00 | 0.23 | 0.00 | 86 | 1014.1 |
| 20260506073038 | 49 | 0 | 0.0 | 3.0 | 0.00 | 0.28 | 0.00 | 86 | 1013.9 |
| 20260506071535 | 49 | 0 | 0.0 | 2.0 | 0.00 | 0.28 | 0.00 | 87 | 1013.7 |
| 20260506061538 | 49 | 0 | 0.0 | 0.0 | 0.00 | 0.28 | 0.28 | 86 | 1013.1 |
| 20260506044546 | 51 | 0 | 0.0 | 2.0 | 0.02 | 0.28 | 0.28 | 78 | 1012.2 |
| 20260506043040 | 52 | 0 | 0.0 | 2.0 | 0.05 | 0.28 | 0.28 | 74 | 1012.1 |
| 20260506041548 | 53 | 151 | 1.0 | 6.0 | 0.05 | 0.28 | 0.28 | 73 | 1011.8 |
| 20260506040040 | 55 | 269 | 0.0 | 8.0 | 0.05 | 0.28 | 0.28 | 69 | 1011.8 |
| 20260506034539 | 62 | 111 | 6.0 | 12.0 | 0.02 | 0.25 | 0.25 | 58 | 1013.2 |
| 20260506033038 | 61 | 142 | 1.0 | 4.0 | 0.00 | 0.23 | 0.23 | 60 | 1011.3 |
| 20260506031538 | 61 | 141 | 2.0 | 3.0 | 0.00 | 0.23 | 0.23 | 59 | 1011.1 |
| 20260506030037 | 61 | 141 | 1.0 | 2.0 | 0.00 | 0.23 | 0.23 | 56 | 1010.8 |
| 20260506024539 | 62 | 181 | 0.0 | 1.0 | 0.00 | 0.23 | 0.23 | 52 | 1010.4 |
| 20260506023040 | 63 | 0 | 0.0 | 2.0 | 0.00 | 0.23 | 0.23 | 51 | 1010.3 |
| 20260506021546 | 64 | 158 | 1.0 | 4.0 | 0.00 | 0.23 | 0.23 | 50 | 1010.2 |
| 20260506020037 | 66 | 0 | 1.0 | 4.0 | 0.00 | 0.23 | 0.23 | 46 | 1010.3 |
| 20260506014537 | 67 | 144 | 1.0 | 5.0 | 0.00 | 0.23 | 0.23 | 44 | 1010.3 |
| 20260506013044 | 68 | 146 | 0.0 | 6.0 | 0.00 | 0.23 | 0.23 | 44 | 1010.1 |
| 20260506011604 | 69 | 154 | 2.0 | 7.0 | 0.00 | 0.23 | 0.23 | 44 | 1010.2 |
| 20260506010039 | 69 | 131 | 2.0 | 5.0 | 0.00 | 0.23 | 0.23 | 44 | 1010.1 |
| 20260506004543 | 69 | 0 | 0.0 | 6.0 | 0.00 | 0.23 | 0.23 | 46 | 1010.1 |
| 20260506003038 | 69 | 124 | 2.0 | 5.0 | 0.00 | 0.23 | 0.23 | 45 | 1010.2 |
| 20260506001536 | 69 | 0 | 1.0 | 5.0 | 0.00 | 0.23 | 0.23 | 45 | 1010.2 |
| 20260506000046 | 69 | 143 | 2.0 | 4.0 | 0.00 | 0.23 | 0.23 | 45 | 1010.4 |
| 20260505234535 | 70 | 150 | 0.0 | 5.0 | 0.00 | 0.23 | 0.23 | 45 | 1010.5 |
| 20260505233038 | 69 | 208 | 0.0 | 4.0 | 0.00 | 0.23 | 0.23 | 47 | 1010.6 |
| 20260505231541 | 68 | 0 | 1.0 | 6.0 | 0.00 | 0.23 | 0.23 | 46 | 1010.9 |
| 20260505230038 | 68 | 0 | 1.0 | 4.0 | 0.00 | 0.23 | 0.23 | 51 | 1010.9 |
| 20260505224537 | 67 | 126 | 1.0 | 5.0 | 0.00 | 0.23 | 0.23 | 52 | 1011.0 |
| 20260505223036 | 68 | 80 | 0.0 | 4.0 | 0.00 | 0.23 | 0.23 | 53 | 1011.2 |
| 20260505221535 | 65 | 0 | 0.0 | 6.0 | 0.00 | 0.23 | 0.23 | 50 | 1011.5 |
| 20260505220051 | 67 | 0 | 2.0 | 6.0 | 0.00 | 0.23 | 0.23 | 48 | 1011.7 |
| 20260505214543 | 67 | 0 | 0.0 | 5.0 | 0.00 | 0.24 | 0.23 | 51 | 1011.8 |
| 20260505213039 | 67 | 155 | 2.0 | 6.0 | 0.00 | 0.24 | 0.23 | 53 | 1012.0 |
| 20260505211539 | 66 | 94 | 1.0 | 5.0 | 0.00 | 0.24 | 0.23 | 56 | 1012.0 |
| 20260505210046 | 65 | 225 | 2.0 | 7.0 | 0.00 | 0.24 | 0.23 | 54 | 1012.1 |
| 20260505204547 | 65 | 300 | 1.0 | 5.0 | 0.00 | 0.24 | 0.23 | 55 | 1012.2 |
| 20260505203038 | 65 | 0 | 0.0 | 7.0 | 0.00 | 0.24 | 0.23 | 53 | 1012.4 |
| 20260505201541 | 64 | 97 | 0.0 | 6.0 | 0.00 | 0.24 | 0.23 | 56 | 1012.4 |
| 20260505200037 | 64 | 221 | 1.0 | 6.0 | 0.00 | 0.24 | 0.23 | 56 | 1012.4 |
| 20260505194532 | 64 | 98 | 1.0 | 3.0 | 0.00 | 0.24 | 0.23 | 59 | 1012.4 |
| 20260505193042 | 63 | 132 | 0.0 | 4.0 | 0.00 | 0.24 | 0.23 | 58 | 1012.4 |
| 20260505191537 | 62 | 0 | 0.0 | 3.0 | 0.00 | 0.24 | 0.23 | 63 | 1012.4 |
| 20260505190037 | 61 | 323 | 1.0 | 7.0 | 0.00 | 0.24 | 0.23 | 65 | 1012.4 |
| 20260505184537 | 59 | 295 | 0.0 | 3.0 | 0.00 | 0.24 | 0.23 | 69 | 1012.4 |
| 20260505183048 | 59 | 0 | 0.0 | 5.0 | 0.00 | 0.24 | 0.23 | 72 | 1012.3 |
| 20260505181535 | 58 | 0 | 0.0 | 4.0 | 0.00 | 0.24 | 0.23 | 74 | 1012.4 |
| 20260505180040 | 57 | 153 | 0.0 | 3.0 | 0.00 | 0.24 | 0.23 | 79 | 1012.2 |
| 20260505174537 | 55 | 0 | 1.0 | 4.0 | 0.00 | 0.24 | 0.23 | 83 | 1012.2 |
| 20260505173038 | 53 | 0 | 0.0 | 3.0 | 0.00 | 0.24 | 0.23 | 89 | 1012.1 |
| 20260505171537 | 52 | 0 | 0.0 | 2.0 | 0.00 | 0.24 | 0.23 | 91 | 1012.1 |
| 20260505170038 | 51 | 0 | 0.0 | 1.0 | 0.00 | 0.24 | 0.23 | 92 | 1012.0 |
| 20260505164553 | 51 | 0 | 0.0 | 2.0 | 0.00 | 0.24 | 0.23 | 92 | 1011.9 |
| 20260505163039 | 51 | 0 | 0.0 | 2.0 | 0.00 | 0.24 | 0.23 | 93 | 1011.7 |
| 20260505161549 | 51 | 0 | 0.0 | 3.0 | 0.00 | 0.24 | 0.23 | 94 | 1011.7 |
| 20260505153036 | 49 | 0 | 0.0 | 2.0 | 0.00 | 0.24 | 0.23 | 93 | 1011.2 |
| 20260505151538 | 49 | 0 | 0.0 | 0.0 | 0.00 | 0.24 | 0.23 | 94 | 1011.2 |